Find Kupon

NORAD ID: 25045 Int'l Des: 1997-070 Owner: TSBM Country: RU operational
HEOCIRCULARGSO

实时位置

正在加载3D地球...

关于 Kupon

正在加载描述...

即将过境

Passes for default location (London). Set your location on the main map for personalized predictions.

高度历史

Loading altitude history...

两行轨道根数

1 25045U 97070A 26104.16749501 -.00000261 00000-0 00000-0 0 9995
2 25045 14.5573 355.1167 0004800 309.0038 50.9337 1.00274992104002
Epoch: Apr 14, 2026 • Age: 21 hours

当前状态

高度 35767.3 km
速度 3.08 km/s
星下点 -10.47°S, 93.35°E
发射日期 Nov 12, 1997
运行时间 28.4 years
类型 other

技术详情

分类 Payload
质量 2300.00 kg
干质量 2200.00 kg
总质量 2300.00 kg
长度 5.00 m
直径 2.00 m
跨度 10.00 m
形状 Box + 2 Pan
制造商 NPOL
平台类型 Kupon
阶段状态 In Orbit
所有者/国家 TSBM/RU

Most Searched